Regional Weather Roundup
Issued by NWS Kansas City/Pleasant Hill, MO

Home | Current Version | Previous Version | Text Only | Print | Product List | Glossary On
Versions: 1 2 3 4 5 6 7 8 9 10 11 12 13 14 15 16 17 18 19 20 21 22 23 24 25 26 27 28 29 30 31 32 33 34 35 36 37 38 39 40 41 42 43 44 45 46 47 48 49 50
000
ASUS43 KEAX 302311
RWREAX

WEATHER ROUNDUP FOR EASTERN KANSAS AND NORTHWEST MISSOURI
NATIONAL WEATHER SERVICE KANSAS CITY/PLEASANT HILL MO
600 PM CDT WED JUL 30 2014

KSZ040-057-103>105-MOZ028-029-037-043-310000-
...KANSAS CITY METROPOLITAN AREA...

CITY           SKY/WX    TMP DP  RH WIND       PRES   REMARKS
K.C. INTL      CLOUDY    80  55  42 N6        30.08S
K.C. DOWNTOWN  CLOUDY    79  56  45 NE7       30.06S
LEES SUMMIT    CLOUDY    78  57  48 NE3       30.08S
OLATHE - IXD   CLOUDY    77  59  53 S8        30.09S
OLATHE - OJC   CLOUDY    75  59  57 S6        30.08S
LAWRENCE       CLOUDY    78  59  51 N6        30.08S

$$

MOZ001>008-011>017-020>025-030>033-038>040-044>046-053-054-310000-
...NORTHERN AND CENTRAL MISSOURI...

CITY           SKY/WX    TMP DP  RH WIND       PRES   REMARKS
ST. JOSEPH     PTSUNNY   80  57  45 N6        30.08F
MOSBY          MOCLDY    79  54  41 NE6       30.07S
WARRENSBURG    CLOUDY    75  61  60 S6        30.07S
WHITEMAN AFB   CLOUDY    76  49  37 SW6       30.07S
CLINTON        CLOUDY    75  63  64 CALM      30.08F
SEDALIA        CLOUDY    77  59  53 SW8       30.07F
WARSAW         NOT AVBL
MARSHALL       PTSUNNY   81  59  47 CALM      30.07S
CHILLICOTHE      N/A     83  55  38 N6        30.07F
MOBERLY        MOSUNNY   82  54  36 NE5       30.07S
KIRKSVILLE     MOSUNNY   80  56  43 N6        30.08S

$$

MOZ041-047>049-056>058-063>065-088>090-097-310000-
...EASTERN AND SOUTHERN MISSOURI...

CITY           SKY/WX    TMP DP  RH WIND       PRES   REMARKS
ST. LOUIS INTL PTSUNNY   83  55  38 N8        30.05S
SPIRIT OF STL  PTSUNNY   83  54  36 N6        30.03F
COLUMBIA       PTSUNNY   80  57  45 N6        30.06F
JEFFERSON CITY CLOUDY    79  59  50 S5        30.04F
MEXICO         MOSUNNY   81  63  54 NE3       30.06S
HANNIBAL       MOSUNNY   81  52  36 N3        30.06F
ROLLA          CLOUDY    76  56  49 SW5       30.06F
LEBANON        CLOUDY    73  57  56 S3        30.09F
OSAGE BEACH    CLOUDY    75  61  60 W3        30.07F
SPRINGFIELD    LGT RAIN  69  66  90 S7        30.09F
BRANSON        LGT RAIN  66  66 100 CALM      30.11S FOG
JOPLIN         RAIN      67  66  97 E3        30.09S FOG
WEST PLAINS    CLOUDY    69  64  84 W3        30.11S
MALDEN         CLOUDY    79  63  57 SW5       30.07F

$$

IAZ060-094-KSZ022-034>040-054-083-096-NEZ052-066-093-310000-
...KANSAS...SOUTHEAST NEBRASKA AND IOWA...

CITY           SKY/WX    TMP DP  RH WIND       PRES   REMARKS
TOPEKA         PTSUNNY   80  56  43 NE6       30.08F
MANHATTAN      PTSUNNY   80  55  42 VRB3      30.08F
EMPORIA        CLOUDY    70  64  81 NE3       30.10S
CHANUTE        LGT RAIN  69  65  86 NE6       30.09S
WICHITA        LGT RAIN  68  65  90 NE12      30.09S
OMAHA          MOSUNNY   81  52  36 VRB3      30.10S
LINCOLN        MOSUNNY   81  50  33 NE10      30.11F
FALLS CITY     MOSUNNY   81  53  37 E3        30.08F
LAMONI         MOSUNNY   79  53  40 N6        30.08F
DES MOINES     MOSUNNY   78  52  40 N6        30.07S

$$




USA.gov is the U.S. government's official web portal to all federal, state and local government web resources and services.